Home   Weather   Howell   Past weeks

Flag for USA Past Weather in Howell, Michigan, USA — Yesterday and Last 2 Weeks

Now
55 °F

Passing clouds.


Feels Like: 54 °F
Forecast: 49 / 62 °F
Wind: 5 mph from Southwest

Location: Livingston County Airport

Current Time: Sep 26, 2016 at 9:57:34 PM

Latest Report: Sep 26, 2016 at 9:35 PM


Visibility: 10 mi

Pressure: 29.91 "Hg

Humidity: 65%

Dew Point: 43 °F

Location of HowellLocation

Past Weather in Howell — Graph

°F

Howell Temperature Yesterday

Maximum temperature yesterday: 72 °F (at 3:15 PM)
Minimum temperature yesterday: 47 °F (at 6:35 AM)
Average temperature yesterday: 59 °F

High & Low Weather Summary for the Past Weeks

 TemperatureHumidityPressure
High83 °F (Sep 22, 3:15 PM)100% (Sep 15, 6:54 AM)30.32 "Hg (Sep 15, 6:54 AM)
Low47 °F (Sep 15, 6:35 AM)34% (Sep 20, 4:55 PM)29.86 "Hg (Sep 26, 4:15 AM)
Average65 °F78%30.11 "Hg
* Reported Sep 11 8:14 PM — Sep 26 8:35 PM, Howell, Weather by CustomWeather, © 2016

Note: Actual official high and low records may vary slightly from our data, if they occured in-between our weather recording intervals... More about our weather records

Advertising

Howell Weather History for the Previous 24 Hours

Scroll right to see more
 ConditionsComfort  
Time TempWeatherWind HumidityBarometerVisibility
8:35 PM
Mon, Sep 26
56 °FClear.5 mph61%29.91 "Hg10 mi
8:14 PM57 °FPassing clouds.6 mph59%29.90 "Hg10 mi
7:55 PM58 °FPassing clouds.8 mph58%29.91 "Hg10 mi
7:34 PM59 °FClear.9 mph55%29.90 "Hg10 mi
7:15 PM60 °FSunny.9 mph52%29.90 "Hg10 mi
6:55 PM62 °FSunny.10 mph47%29.89 "Hg10 mi
6:34 PM63 °FSunny.14 mph43%29.89 "Hg10 mi
6:15 PM63 °FScattered clouds.17 mph41%29.88 "Hg10 mi
5:54 PM65 °FScattered clouds.21 mph43%29.88 "Hg10 mi
5:35 PM65 °FScattered clouds.17 mph43%29.88 "Hg10 mi
5:15 PM65 °FBroken clouds.14 mph46%29.88 "Hg10 mi
4:54 PM65 °FPartly sunny.14 mph43%29.87 "Hg10 mi
4:35 PM64 °FScattered clouds.12 mph46%29.87 "Hg10 mi
4:14 PM67 °FScattered clouds.16 mph43%29.88 "Hg10 mi
3:54 PM67 °FScattered clouds.13 mph42%29.87 "Hg10 mi
3:35 PM65 °FSunny.20 mph45%29.87 "Hg10 mi
3:14 PM64 °FScattered clouds.15 mph51%29.88 "Hg10 mi
2:55 PM63 °FPartly sunny.15 mph54%29.88 "Hg10 mi
2:35 PM64 °FBroken clouds.17 mph55%29.88 "Hg10 mi
2:14 PM65 °FBroken clouds.16 mph57%29.89 "Hg10 mi
1:55 PM64 °FBroken clouds.18 mph56%29.90 "Hg10 mi
1:35 PM64 °FScattered clouds.16 mph63%29.90 "Hg10 mi
1:14 PM62 °FScattered clouds.13 mph70%29.90 "Hg10 mi
12:55 PM62 °FScattered clouds.14 mph72%29.90 "Hg10 mi
12:34 PM61 °FSunny.12 mph75%29.91 "Hg10 mi
12:15 PM60 °FSunny.14 mph77%29.91 "Hg10 mi
11:54 AM60 °FScattered clouds.13 mph78%29.92 "Hg10 mi
11:35 AM60 °FCloudy.15 mph80%29.92 "Hg10 mi
10:54 AM60 °FMore clouds than sun.10 mph88%29.92 "Hg10 mi
10:35 AM60 °FMore clouds than sun.9 mph90%29.91 "Hg10 mi
10:15 AM60 °FCloudy.13 mph93%29.90 "Hg10 mi
9:54 AM60 °FCloudy.7 mph94%29.86 "Hg10 mi
9:35 AM60 °FDrizzle. Cloudy.8 mph94%29.88 "Hg10 mi
9:14 AM60 °FLight rain. More clouds than sun.12 mph94%29.91 "Hg10 mi
8:55 AM61 °FRain. Overcast.7 mph93%29.87 "Hg10 mi
8:35 AM61 °FLight rain. More clouds than sun.7 mph94%29.87 "Hg10 mi
8:14 AM62 °FLight rain. More clouds than sun.7 mph93%29.88 "Hg10 mi
7:55 AM62 °FLight rain. Mostly cloudy.6 mph96%29.89 "Hg10 mi
7:35 AM63 °FHeavy rain. Cloudy.10 mph93%29.88 "Hg5 mi
7:14 AM64 °FLight rain. Mostly cloudy.8 mph89%29.89 "Hg10 mi
6:55 AM64 °FLight rain. Mostly cloudy.10 mph87%29.88 "Hg10 mi
6:34 AM65 °FRain. Mostly cloudy.9 mph86%29.88 "Hg10 mi
6:15 AM65 °FOvercast.8 mph88%29.87 "Hg10 mi
5:55 AM65 °FOvercast.9 mph89%29.87 "Hg10 mi
5:34 AM65 °FMostly cloudy.8 mph86%29.86 "Hg10 mi
5:15 AM66 °FOvercast.9 mph85%29.86 "Hg10 mi
4:55 AM66 °FOvercast.7 mph82%29.86 "Hg10 mi
4:34 AM65 °FMostly cloudy.6 mph82%29.86 "Hg10 mi
4:15 AM65 °FOvercast.5 mph80%29.86 "Hg10 mi
3:54 AM65 °FPassing clouds.7 mph79%29.87 "Hg10 mi
3:35 AM65 °FClear.6 mph77%29.88 "Hg10 mi
3:15 AM65 °FPartly cloudy.7 mph76%29.89 "Hg10 mi
2:54 AM64 °FPartly cloudy.9 mph78%29.91 "Hg10 mi
2:35 AM64 °FPassing clouds.9 mph76%29.91 "Hg10 mi
2:14 AM64 °FMostly cloudy.10 mph80%29.91 "Hg10 mi
1:55 AM63 °FPartly cloudy.10 mph81%29.91 "Hg10 mi
1:35 AM63 °FPassing clouds.10 mph83%29.93 "Hg10 mi
1:15 AM62 °FPartly cloudy.9 mph83%29.94 "Hg10 mi
12:55 AM62 °FLight rain. Overcast.10 mph82%29.96 "Hg7 mi
12:34 AM63 °FMostly cloudy.10 mph76%29.96 "Hg10 mi
12:15 AM62 °FPartly cloudy.12 mph74%29.97 "Hg10 mi
11:55 PM
Sun, Sep 25
61 °FClear.10 mph74%29.97 "Hg10 mi
11:34 PM61 °FPassing clouds.12 mph73%29.98 "Hg10 mi
11:15 PM60 °FClear.13 mph72%29.99 "Hg10 mi
10:54 PM60 °FPassing clouds.10 mph70%30.00 "Hg10 mi
10:35 PM60 °FClear.10 mph67%30.01 "Hg10 mi
10:15 PM60 °FClear.12 mph66%30.02 "Hg10 mi
9:54 PM60 °FClear.9 mph65%30.02 "Hg10 mi
9:35 PM61 °FClear.9 mph62%30.03 "Hg10 mi
9:15 PM61 °FClear.9 mph61%30.03 "Hg10 mi
Weather by CustomWeather, © 2016

See weather overviewHow to use our weather pages